Previsão horária em Cercola

Hoje, 3 Agosto, Terça-feira

Tempo Temperatura Precipitação Vento Pressão Humidade
00:00 +25°C° 0 mm 2 m/s 754 mmHg 56%
01:00 +25°C° 0 mm 2 m/s 754 mmHg 59%
02:00 +25°C° 0 mm 2 m/s 754 mmHg 59%
03:00 +24°C° 0 mm 2 m/s 753 mmHg 59%
04:00 +24°C° 0 mm 2 m/s 753 mmHg 59%
05:00 +25°C° 0 mm 2 m/s 754 mmHg 54%
06:00 +26°C° 0 mm 2 m/s 754 mmHg 49%
07:00 +26°C° 0 mm 2 m/s 755 mmHg 44%
08:00 +27°C° 0 mm 3 m/s 754 mmHg 43%
09:00 +28°C° 0 mm 3 m/s 754 mmHg 43%
10:00 +29°C° 0 mm 4 m/s 753 mmHg 43%
11:00 +32°C° 0 mm 5 m/s 754 mmHg 39%
12:00 +33°C° 0 mm 6 m/s 754 mmHg 36%
13:00 +35°C° 0 mm 7 m/s 754 mmHg 32%
14:00 +35°C° 0 mm 6 m/s 754 mmHg 33%
15:00 +34°C° 0 mm 5 m/s 754 mmHg 34%
16:00 +34°C° 0 mm 5 m/s 754 mmHg 35%
17:00 +33°C° 0 mm 4 m/s 754 mmHg 38%
18:00 +32°C° 0 mm 4 m/s 753 mmHg 41%
19:00 +29°C° 0 mm 3 m/s 753 mmHg 44%
20:00 +29°C° 0 mm 2 m/s 754 mmHg 47%
21:00 +28°C° 0 mm 2 m/s 754 mmHg 49%
22:00 +27°C° 0 mm 1 m/s 754 mmHg 51%
23:00 +27°C° 0 mm 1 m/s 753 mmHg 50%

Amanhã, 4 Agosto, Quarta-feira

Tempo Temperatura Precipitação Vento Pressão Humidade
00:00 +27°C° 0 mm 1 m/s 753 mmHg 49%
01:00 +27°C° 0 mm 1 m/s 753 mmHg 48%
02:00 +27°C° 0 mm 1 m/s 753 mmHg 48%
03:00 +26°C° 0 mm 1 m/s 752 mmHg 48%
04:00 +26°C° 0 mm 1 m/s 752 mmHg 49%
05:00 +28°C° 0 mm 1 m/s 752 mmHg 44%
06:00 +29°C° 0 mm 1 m/s 752 mmHg 39%
07:00 +30°C° 0 mm 1 m/s 752 mmHg 35%
08:00 +32°C° 0 mm 2 m/s 752 mmHg 30%
09:00 +35°C° 0 mm 3 m/s 752 mmHg 25%
10:00 +38°C° 0 mm 4 m/s 752 mmHg 21%
11:00 +38°C° 0 mm 4 m/s 752 mmHg 22%
12:00 +39°C° 0 mm 5 m/s 752 mmHg 23%
13:00 +39°C° 0 mm 5 m/s 752 mmHg 24%
14:00 +39°C° 0 mm 5 m/s 752 mmHg 27%
15:00 +37°C° 0 mm 4 m/s 751 mmHg 29%
16:00 +37°C° 0 mm 4 m/s 751 mmHg 32%
17:00 +35°C° 0 mm 4 m/s 751 mmHg 37%
18:00 +34°C° 0 mm 3 m/s 751 mmHg 43%
19:00 +33°C° 0 mm 3 m/s 751 mmHg 48%
20:00 +31°C° 0 mm 3 m/s 751 mmHg 52%
21:00 +30°C° 0 mm 3 m/s 751 mmHg 57%
22:00 +29°C° 0 mm 2 m/s 751 mmHg 61%
23:00 +29°C° 0 mm 2 m/s 751 mmHg 65%

Depois de amanhã, 5 Agosto, Quinta-feira

Tempo Temperatura Precipitação Vento Pressão Humidade
00:00 +28°C° 0 mm 2 m/s 751 mmHg 68%
01:00 +28°C° 0 mm 2 m/s 750 mmHg 72%
02:00 +28°C° 0 mm 2 m/s 750 mmHg 74%
03:00 +28°C° 0 mm 2 m/s 750 mmHg 75%
04:00 +27°C° 0 mm 2 m/s 749 mmHg 77%
05:00 +27°C° 0.3 mm 3 m/s 750 mmHg 79%
06:00 +28°C° 0.3 mm 3 m/s 750 mmHg 81%
07:00 +28°C° 0.3 mm 4 m/s 750 mmHg 83%
08:00 +29°C° 0.1 mm 4 m/s 750 mmHg 71%
09:00 +30°C° 0.1 mm 5 m/s 751 mmHg 59%
10:00 +32°C° 0.1 mm 5 m/s 751 mmHg 46%
11:00 +33°C° 0 mm 5 m/s 751 mmHg 44%
12:00 +33°C° 0 mm 6 m/s 751 mmHg 41%
13:00 +33°C° 0 mm 6 m/s 751 mmHg 39%
14:00 +33°C° 0 mm 6 m/s 751 mmHg 40%
15:00 +32°C° 0 mm 6 m/s 751 mmHg 42%
16:00 +30°C° 0 mm 6 m/s 750 mmHg 44%
17:00 +29°C° 0 mm 6 m/s 750 mmHg 45%
18:00 +28°C° 0 mm 5 m/s 750 mmHg 46%
19:00 +27°C° 0 mm 5 m/s 750 mmHg 47%
20:00 +27°C° 0 mm 5 m/s 750 mmHg 52%
21:00 +26°C° 0 mm 5 m/s 750 mmHg 57%
22:00 +25°C° 0 mm 5 m/s 750 mmHg 62%
23:00 +25°C° 0 mm 5 m/s 750 mmHg 62%

6 Agosto, Sexta-feira

Tempo Temperatura Precipitação Vento Pressão Humidade
00:00 +25°C° 0 mm 4 m/s 750 mmHg 61%
01:00 +23°C° 0 mm 4 m/s 750 mmHg 61%
02:00 +23°C° 0 mm 4 m/s 750 mmHg 64%
03:00 +23°C° 0 mm 4 m/s 750 mmHg 68%
04:00 +22°C° 0 mm 3 m/s 750 mmHg 71%
05:00 +24°C° 0 mm 3 m/s 750 mmHg 69%
06:00 +25°C° 0 mm 3 m/s 750 mmHg 66%
07:00 +25°C° 0 mm 3 m/s 750 mmHg 64%
08:00 +27°C° 0 mm 3 m/s 750 mmHg 58%
09:00 +28°C° 0 mm 3 m/s 750 mmHg 51%
10:00 +29°C° 0 mm 3 m/s 750 mmHg 45%
11:00 +30°C° 0 mm 4 m/s 750 mmHg 43%
12:00 +32°C° 0 mm 4 m/s 750 mmHg 41%
13:00 +33°C° 0 mm 4 m/s 750 mmHg 39%
14:00 +32°C° 0 mm 4 m/s 750 mmHg 40%
15:00 +32°C° 0 mm 4 m/s 750 mmHg 41%
16:00 +32°C° 0 mm 4 m/s 750 mmHg 43%
17:00 +30°C° 0 mm 4 m/s 750 mmHg 47%
18:00 +28°C° 0 mm 3 m/s 750 mmHg 51%
19:00 +27°C° 0 mm 2 m/s 750 mmHg 55%
20:00 +27°C° 0 mm 2 m/s 750 mmHg 59%
21:00 +26°C° 0 mm 2 m/s 750 mmHg 63%
22:00 +26°C° 0 mm 1 m/s 751 mmHg 67%
23:00 +25°C° 0 mm 1 m/s 751 mmHg 69%

7 Agosto, Sábado

Tempo Temperatura Precipitação Vento Pressão Humidade
00:00 +25°C° 0 mm 1 m/s 751 mmHg 71%
01:00 +24°C° 0 mm 1 m/s 751 mmHg 74%
02:00 +24°C° 0 mm 1 m/s 751 mmHg 74%
03:00 +24°C° 0 mm 1 m/s 751 mmHg 75%
04:00 +24°C° 0 mm 1 m/s 751 mmHg 76%
05:00 +25°C° 0 mm 1 m/s 751 mmHg 72%
06:00 +25°C° 0 mm 1 m/s 751 mmHg 68%
07:00 +26°C° 0 mm 1 m/s 751 mmHg 63%
08:00 +28°C° 0 mm 1 m/s 751 mmHg 56%
09:00 +30°C° 0 mm 2 m/s 751 mmHg 49%
10:00 +32°C° 0 mm 2 m/s 751 mmHg 41%
11:00 +34°C° 0 mm 2 m/s 751 mmHg 39%
12:00 +35°C° 0 mm 3 m/s 751 mmHg 37%
13:00 +36°C° 0 mm 3 m/s 751 mmHg 36%
14:00 +35°C° 0 mm 3 m/s 751 mmHg 36%
15:00 +35°C° 0 mm 3 m/s 751 mmHg 36%
16:00 +35°C° 0 mm 3 m/s 751 mmHg 36%
17:00 +34°C° 0 mm 2 m/s 751 mmHg 39%
18:00 +31°C° 0 mm 2 m/s 751 mmHg 42%
19:00 +30°C° 0 mm 1 m/s 751 mmHg 45%
20:00 +29°C° 0 mm 1 m/s 751 mmHg 47%
21:00 +29°C° 0 mm 1 m/s 751 mmHg 50%
22:00 +28°C° 0 mm 1 m/s 752 mmHg 52%
23:00 +28°C° 0 mm 1 m/s 752 mmHg 53%

8 Agosto, Domingo

Tempo Temperatura Precipitação Vento Pressão Humidade
00:00 +27°C° 0 mm 1 m/s 752 mmHg 53%
01:00 +27°C° 0 mm 1 m/s 752 mmHg 53%
02:00 +27°C° 0 mm 1 m/s 752 mmHg 54%
03:00 +26°C° 0 mm 1 m/s 752 mmHg 54%
04:00 +26°C° 0 mm 1 m/s 752 mmHg 54%
05:00 +27°C° 0 mm 1 m/s 752 mmHg 50%
06:00 +28°C° 0 mm 1 m/s 752 mmHg 47%
07:00 +29°C° 0 mm 1 m/s 753 mmHg 43%
08:00 +32°C° 0 mm 1 m/s 753 mmHg 37%
09:00 +34°C° 0 mm 1 m/s 753 mmHg 30%
10:00 +37°C° 0 mm 1 m/s 753 mmHg 24%
11:00 +38°C° 0 mm 2 m/s 753 mmHg 23%
12:00 +39°C° 0 mm 3 m/s 753 mmHg 22%
13:00 +40°C° 0 mm 3 m/s 753 mmHg 21%
14:00 +39°C° 0 mm 3 m/s 753 mmHg 22%
15:00 +39°C° 0 mm 3 m/s 754 mmHg 22%
16:00 +39°C° 0 mm 3 m/s 754 mmHg 23%
17:00 +37°C° 0 mm 2 m/s 754 mmHg 25%
18:00 +36°C° 0 mm 2 m/s 754 mmHg 27%
19:00 +34°C° 0 mm 1 m/s 754 mmHg 29%
20:00 +33°C° 0 mm 1 m/s 754 mmHg 31%
21:00 +32°C° 0 mm 1 m/s 754 mmHg 34%
22:00 +31°C° 0 mm 1 m/s 755 mmHg 36%
23:00 +31°C° 0 mm 1 m/s 755 mmHg 36%
Mostrar mais

Necessitamos do seu Consentimento

A Meteoprog e os seus Fornecedores de Serviços podem armazenar e aceder a dados pessoais como cookies, identificadores do dispositivo ou outras tecnologias semelhantes existentes no seu dispositivo e processar estes dados para personalizar conteúdos e anúncios, assim como funcionalidades nas redes sociais e análise de tráfego.

  • Armazenar e/ou aceder a informações no seu dispositivo

    Os cookies, identificadores do dispositivo ou outras informações podem ser armazenados ou acedidos no seu dispositivo, para os fins acima indicados.

  • Anúncios e conteúdos personalizados, medição de anúncios e conteúdos, dados sobre o público-alvo e desenvolvimento de produtos

    Os anúncios e os conteúdos podem ser personalizados com base num perfil. Podem ser adicionados dados adicionais para uma maior personalização dos anúncios e dos conteúdos. A eficácia dos anúncios e dos conteúdos pode ser medida. Podem ser obtidas informações sobre o público que visualizou os anúncios e os conteúdos. Estes dados podem ser usados para desenvolver ou melhorar sistemas, softwares ou a experiência do utilizador.

Ao clicar em "Eu concordo”, permitirá o uso de cookies, identificadores do dispositivo e web beacons mencionados ou outras tecnologias semelhantes. As configurações do navegador do seu dispositivo podem ser alteradas.

Para certos fins, podem ser invocados interesses legítimos ao invés de consentimento. Pode ler mais informação sobre este assunto na nossa Política de Privacidade e Cookies.